EHI
0 0 0 0 0 0 0 0 0 0 1 2 5 6 8 7 5 2 1 0 0 0 0 0 0 0 0 0 0 0 0 0 0 0 0 0 0 0 0 0 0 0 0 0
0 0 0 0 0 0 0 0 0 0 1 2 4 7 8 7 4 2 1 0 0 0 0 0 0 0 0 0 0 0 0 0 0 0 0 0 0 0 0 0 0 0 0 0
0 0 0 0 0 0 0 0 0 0 1 2 3 5 7 6 2 1 0 0 0 0 0 0 0 0 0 0 0 0 0 0 0 0 0 0 0 0 0 0 0 0 0 0
0 0 0 0 0 0 0 0 0 0 0 1 1 2 4 4 1 0 0 0 0 0 0 0 0 0 0 0 0 0 0 0 0 0 0 0 0 0 0 0 0 0 0 0
0 0 0 0 0 0 0 0 0 0 0 0 1 1 1 1 0 0 0 0 0 0 0 0 0 0 0 0 0 0 0 0 0 0 0 0 0 0 0 0 0 0 0 0
0 0 0 0 0 0 0 0 0 0 0 0 0 0 1 1 1 1 1 1 0 0 0 0 0 0 0 0 0 0 0 0 0 0 0 0 0 0 0 0 0 0 0 0
0 0 0 0 0 0 0 0 0 0 0 0 0 1 2 2 2 2 2 2 1 0 0 0 0 0 0 0 0 0 0 0 0 0 0 0 0 0 0 0 0 0 0 0
0 0 0 0 0 0 0 0 0 0 0 0 1 2 3 3 3 3 3 3 1 0 0 0 0 0 0 0 0 0 0 0 0 0 0 0 0 0 0 0 0 0 0 0
0 0 0 0 0 0 0 0 0 0 0 1 2 3 3 3 2 2 3 3 2 1 0 0 0 0 0 0 0 0 0 0 0 0 0 0 0 0 0 0 0 0 0 0
0 0 0 0 0 0 0 0 0 0 0 1 2 2 2 2 1 1 3 3 3 2 1 0 0 0 0 0 0 0 0 0 0 0 0 0 0 0 0 0 0 0 0 0
0 0 0 0 0 0 0 0 0 0 0 0 1 1 1 1 0 1 2 3 3 3 2 0 0 0 0 0 0 0 0 0 0 0 0 0 0 0 0 0 0 0 0 0
0 0 0 0 0 0 0 0 0 0 0 0 0 0 0 0 0 0 1 1 2 2 1 0 0 0 0 0 0 0 0 0 0 0 0 0 0 0 0 0 0 0 0 0
0 0 0 0 0 0 0 0 0 0 0 0 0 0 0 0 0 0 1 1 1 1 0 0 0 0 0 0 0 0 0 0 0 0 0 0 0 0 0 0 0 0 0 0
0 0 0 0 0 0 0 0 0 0 0 0 0 0 0 0 0 0 0 0 0 0 0 0 0 0 0 0 0 0 0 0 0 0 0 0 0 0 0 0 0 0 0 0
0 0 0 0 0 0 0 0 0 0 0 0 0 0 0 0 0 0 0 0 0 0 0 0 0 0 0 0 0 0 0 0 0 0 0 0 0 0 0 0 0 0 0 0
0 0 0 0 0 0 0 0 0 0 0 0 0 0 0 0 0 0 0 0 0 0 0 0 0 0 0 0 0 0 0 0 0 0 0 0 0 0 0 0 0 0 0 0
0 0 0 0 0 0 0 0 0 0 0 0 0 0 0 0 0 0 0 0 0 0 0 0 0 0 0 0 0 0 0 0 0 0 0 0 0 0 0 0 0 0 0 0
0 0 0 0 0 0 0 0 0 0 0 0 0 0 0 0 0 0 0 0 0 0 0 0 0 0 0 0 0 0 0 0 0 0 0 0 0 0 0 0 0 0 0 0
0 0 0 0 0 0 0 0 0 0 0 0 0 0 0 0 0 0 0 0 0 0 0 0 0 0 0 0 0 0 0 0 0 0 0 0 0 0 0 0 0 0 0 0
0 0 0 0 0 0 0 0 0 0 0 0 0 0 0 0 0 0 0 0 0 0 0 0 0 0 0 0 0 0 0 0 0 0 0 0 0 0 0 0 0 0 0 0
0 0 0 0 0 0 0 0 0 0 0 0 0 0 0 0 0 0 0 0 0 0 0 0 0 0 0 0 0 0 0 0 0 0 0 0 0 0 0 0 0 0 0 0
0 0 0 0 0 0 0 0 0 0 0 0 0 0 0 0 0 0 0 0 0 0 0 0 0 0 0 0 0 0 0 0 0 0 0 0 0 0 0 0 0 0 0 0
0 0 0 0 0 0 0 0 0 0 0 0 0 0 0 0 0 0 0 0 0 0 0 0 0 0 0 0 0 0 0 0 0 0 0 0 0 0 0 0 0 0 0 0
0 0 0 0 0 0 0 0 0 0 0 0 0 0 0 0 0 0 0 0 0 0 0 0 0 0 0 0 0 0 0 0 0 0 0 0 0 0 0 0 0 0 0 0
0 0 0 0 0 0 0 0 0 0 0 0 0 0 0 0 0 0 0 0 0 0 0 0 0 0 0 0 0 0 0 0 0 0 0 0 0 0 0 0 0 0 0 0
0 0 0 0 0 0 0 0 0 0 0 0 0 0 0 0 0 0 0 0 0 0 0 0 0 0 0 0 0 0 0 0 0 0 0 0 0 0 0 0 0 0 0 0
0 0 0 0 0 0 0 0 0 0 0 0 0 0 0 0 0 0 0 0 0 0 0 0 0 0 0 0 0 0 0 0 0 0 0 0 0 0 0 0 0 0 0 0
Wind_Speed
1 1 1 1 1 2 3 5 5 1 1 4 4 5 7 8 10 10 11 10 10 9 8 8 7 6 5 5 5 4 5 6 6 6 5 5 5 5 6 6 7 6 7 7
4 3 2 1 1 1 1 2 1 1 2 5 5 6 7 8 9 10 10 10 10 9 8 8 7 6 5 5 5 4 5 6 6 6 5 5 5 5 6 7 6 6 7 8
4 4 4 1 3 2 1 2 3 2 3 6 5 5 6 7 8 9 10 10 10 9 8 8 7 6 6 5 5 5 6 6 6 6 6 5 5 6 6 6 6 7 7 7
4 5 5 3 3 2 2 3 4 4 5 5 6 5 5 6 7 8 9 9 9 9 9 8 7 7 6 6 5 5 5 6 6 5 5 5 5 5 5 5 6 6 7 7
4 5 3 4 2 1 2 2 3 4 6 7 8 7 6 5 6 7 8 8 8 8 9 8 8 7 6 6 5 5 5 5 5 5 5 5 5 5 5 5 6 6 6 7
3 4 1 4 3 1 4 3 3 4 6 7 7 4 5 6 7 8 8 8 9 9 9 8 7 7 7 6 6 6 5 5 5 4 4 5 5 5 4 4 5 5 6 6
3 2 3 5 2 3 3 4 4 4 4 4 2 4 9 9 9 9 9 10 9 9 9 8 7 7 7 7 6 6 5 5 5 5 4 4 4 4 3 3 4 5 5 5
3 3 3 4 0 2 5 4 4 5 5 5 7 9 10 10 10 10 10 10 10 9 8 7 7 7 8 7 6 6 6 6 6 4 3 4 4 3 3 3 4 4 4 4
3 4 6 4 4 5 3 4 5 6 7 7 8 9 10 10 10 10 10 10 9 9 9 7 6 6 8 7 7 6 6 6 5 5 4 4 3 3 3 2 3 3 3 3
3 5 5 4 4 4 4 5 6 7 8 8 9 10 10 9 9 9 10 9 9 9 9 8 7 7 7 7 7 7 6 6 5 4 4 4 2 2 2 2 3 3 3 2
3 4 5 4 4 5 5 6 8 8 8 9 10 11 10 9 9 9 9 8 8 8 8 8 8 8 7 7 7 7 6 5 5 4 4 3 3 3 3 4 4 3 2 2
2 4 2 5 5 6 6 7 8 9 9 8 9 10 11 9 9 9 9 8 8 8 8 8 8 8 7 7 7 7 6 5 4 4 3 3 4 4 4 3 2 1 3 5
3 3 4 7 7 6 7 8 8 8 9 9 9 10 10 9 9 9 9 9 8 8 8 8 8 8 8 7 6 6 5 4 3 3 3 3 2 3 4 3 2 3 3 2
4 5 6 7 7 7 8 8 8 9 9 9 9 9 9 10 9 9 9 9 8 8 8 9 8 8 8 7 7 6 5 5 3 3 3 3 3 2 2 3 4 4 5 6
5 4 6 8 8 8 9 9 9 9 9 9 9 9 10 10 10 9 9 9 8 8 9 8 8 8 8 7 7 6 5 4 3 2 3 3 2 2 2 2 2 2 3 6
7 7 8 9 9 9 9 9 9 9 9 9 9 9 9 9 9 9 9 9 9 9 9 8 8 8 8 7 7 5 4 3 2 3 3 3 3 2 2 2 3 2 2 2
8 8 8 9 9 9 9 8 8 9 10 10 10 10 10 10 10 9 9 9 8 8 8 8 8 8 8 8 7 5 5 6 6 5 4 3 3 2 2 2 2 3 2 1
5 6 6 7 8 9 9 9 9 9 9 10 10 10 10 10 10 9 9 8 8 8 8 8 8 8 9 8 7 5 5 5 6 5 4 4 3 3 3 3 4 4 3 5
6 6 7 7 8 8 9 9 9 9 9 10 11 10 10 9 9 9 9 9 9 9 8 9 8 9 9 8 6 6 5 5 5 5 5 4 5 5 5 4 5 5 5 4
6 7 7 8 8 8 9 9 9 9 9 10 10 10 10 9 9 9 9 8 7 6 8 9 10 10 9 9 8 7 6 6 6 5 6 6 6 6 6 6 5 5 5 5
7 8 8 8 8 8 8 9 9 9 9 10 10 10 9 9 9 9 8 8 8 8 8 9 9 9 9 8 9 8 8 7 7 6 6 6 6 6 6 6 6 6 6 6
7 7 7 8 8 8 7 7 8 9 10 10 10 9 9 9 9 9 9 6 6 8 8 9 9 8 7 8 9 9 9 8 8 7 7 7 7 7 7 7 7 7 7 7
7 7 7 7 7 7 7 7 8 8 9 9 9 9 9 8 7 7 7 7 7 9 9 8 7 9 9 10 10 9 9 9 9 8 8 8 8 8 8 9 8 8 8 8
7 7 7 6 7 7 7 7 7 6 7 7 8 9 8 7 7 7 6 7 8 9 9 7 9 11 11 10 10 10 10 10 10 9 10 9 9 9 9 9 9 9 9 10
7 7 7 7 7 6 6 7 7 7 8 6 7 8 8 6 6 6 6 8 10 10 9 9 12 13 11 11 11 10 10 10 9 9 9 9 9 10 9 9 9 10 10 10
6 6 5 4 3 3 5 5 5 5 5 6 6 6 6 6 7 6 6 8 10 10 9 8 10 12 12 12 12 12 11 10 10 11 12 11 12 11 10 10 13 11 10 10
6 6 5 5 5 5 4 4 4 4 4 4 4 5 6 6 6 7 8 7 8 9 9 9 9 10 11 11 11 11 11 11 11 11 11 11 11 11 11 13 12 11 11 12
Wind_Direction
182 122 189 220 247 246 265 295 294 328 83 100 122 136 138 141 144 146 149 149 147 144 142 137 131 125 116 109 106 105 99 90 84 80 73 68 64 63 63 61 60 56 57 56
177 164 164 127 351 302 306 322 309 151 88 84 100 122 137 147 153 155 156 153 149 146 148 144 139 135 131 121 114 109 96 91 87 83 80 74 70 68 69 66 61 57 56 57
195 185 211 205 355 341 23 355 313 322 91 116 126 135 149 155 158 158 154 151 151 151 150 145 141 138 135 124 117 109 99 95 91 85 82 79 77 73 73 71 68 64 61 60
204 210 227 85 58 46 73 44 42 80 110 125 122 122 128 142 149 147 147 150 152 149 145 142 138 135 130 123 118 113 107 101 96 93 91 86 82 76 73 73 69 66 62 65
232 216 173 143 124 310 279 94 64 109 123 125 124 127 117 120 130 135 142 142 142 143 144 141 135 135 133 131 126 120 110 103 98 96 96 91 84 78 73 76 73 71 66 65
234 241 210 92 66 327 253 155 112 130 140 147 172 189 131 130 126 125 127 131 137 141 140 136 135 142 141 133 130 121 112 106 101 100 96 92 85 83 82 86 88 84 76 65
234 225 97 56 43 232 249 78 117 130 135 156 156 58 114 131 131 131 131 132 136 138 137 137 145 148 137 129 124 123 121 113 105 101 102 97 90 90 95 94 91 88 87 84
237 224 101 57 91 8 48 85 113 117 123 114 96 106 121 129 132 134 132 132 134 136 133 137 145 144 132 124 123 126 119 112 107 105 99 96 94 91 96 107 115 109 104 102
14 53 74 70 57 61 81 106 112 122 123 122 123 128 130 132 134 135 135 136 138 137 134 134 141 142 131 128 133 131 125 119 114 108 96 93 95 103 117 134 129 120 116 107
122 108 103 97 94 93 94 104 116 122 128 129 131 134 135 134 135 138 140 141 144 142 138 137 139 137 132 134 138 138 132 128 128 122 114 110 112 101 101 105 106 110 106 103
137 125 128 112 103 109 108 111 117 123 130 133 137 140 139 137 139 139 140 143 145 144 143 142 141 139 140 141 145 141 137 136 137 128 117 117 99 55 38 57 35 2 35 64
112 129 130 119 125 128 128 126 128 132 133 135 141 140 140 139 140 141 142 145 148 147 145 143 141 141 144 148 151 149 148 150 151 142 136 145 137 130 75 36 64 22 346 341
89 111 105 120 125 128 128 131 134 137 138 139 140 141 142 141 143 144 147 151 151 150 147 145 147 149 153 156 158 157 151 151 152 143 148 158 155 154 145 155 195 220 240 276
125 132 136 136 132 131 130 132 133 131 134 137 141 145 145 144 146 151 155 154 153 152 152 152 153 152 155 158 160 160 160 153 167 156 165 162 163 176 173 165 160 165 187 207
152 152 138 135 136 136 139 142 141 139 139 142 147 150 151 152 153 155 155 155 156 158 158 158 158 156 161 164 166 169 176 165 168 168 182 169 178 188 183 188 184 168 165 172
148 144 145 148 149 150 155 156 152 148 149 150 154 156 156 154 154 156 160 165 168 168 165 165 165 165 169 172 175 178 174 139 218 208 194 189 200 213 209 201 197 194 202 191
162 160 161 160 161 164 165 164 159 154 155 157 158 156 157 158 160 163 169 174 175 172 173 174 174 174 176 179 191 191 182 169 195 227 215 208 214 220 215 214 214 214 213 131
167 163 165 165 165 165 165 163 161 159 159 159 158 161 165 169 171 172 174 174 176 179 184 185 184 184 184 185 198 208 197 196 202 217 212 216 232 234 234 232 229 234 230 183
160 155 156 158 160 160 161 163 164 163 162 164 167 169 173 177 176 175 177 182 187 189 190 188 181 198 195 191 204 211 213 210 210 216 222 214 233 238 238 239 239 239 241 239
152 151 152 156 159 160 160 162 163 163 167 170 172 175 179 181 181 181 185 195 201 196 182 179 186 200 200 195 214 221 216 221 221 221 225 228 229 233 238 240 239 243 249 252
154 154 155 154 156 159 160 163 166 167 170 176 181 183 183 184 185 188 195 201 194 191 185 175 197 201 201 193 206 226 222 224 226 228 232 234 237 239 241 244 246 248 253 255
154 154 154 149 152 154 157 164 168 171 172 180 186 186 186 189 191 196 206 212 188 174 191 194 203 200 193 198 215 225 226 226 230 232 235 239 241 243 244 247 250 253 257 259
150 149 151 153 156 156 160 167 172 176 180 185 189 190 193 195 197 202 203 198 194 184 205 207 189 168 180 215 230 231 230 231 235 237 239 242 243 245 248 249 251 255 259 261
149 152 151 149 150 155 161 166 169 177 184 190 193 195 197 199 201 208 209 182 185 185 211 191 171 180 199 227 233 234 233 233 236 241 243 243 245 246 247 250 253 255 257 259
148 151 154 161 166 163 158 162 168 178 187 190 193 194 199 206 210 203 200 191 180 191 213 193 186 195 214 230 233 235 237 238 242 247 246 247 249 250 250 252 253 256 258 259
150 157 155 169 165 165 167 174 178 178 188 190 191 193 198 201 208 206 203 204 198 204 223 213 199 201 222 232 234 237 240 237 234 238 246 251 253 254 255 256 256 257 259 260
159 156 165 175 177 185 185 186 189 189 193 198 196 195 200 203 206 209 210 211 206 209 220 224 221 217 222 230 234 235 237 240 242 244 245 245 247 250 252 253 255 256 257 258